sat.trackr.live / text

‹ back to catalog

STARLINK-36056

NORAD 67206 · 2025-304Q

PAYLOAD ACTIVE UNKNOWN

§ Identity

Operator
Country
US
Launch date
2025-12-17
Launch site
AFWTR
Launch vehicle
Mass (kg)
RCS (m²)

Purposes: comms

External: N2YO · Heavens-Above · Gunter

§ Orbital elements

Epoch: 2026-05-24T22:45:46.800576Z

Period
96.11 min
Inclination
70.0017°
Eccentricity
0.0002771
Mean motion
14.98335036 rev/d
Perigee alt
570.1 km
Apogee alt
574.0 km
Semi-major
6,950.2 km
B*
2.2870e-4
RAAN
342.3340°
Arg perigee
266.4658°
Mean anomaly
93.6184°
Rev number
2,527

§ Raw data

STARLINK-360561 67206U 25304Q   26144.94845834  .00002637  00000+0  22870-3 0  99962 67206  70.0017 342.3340 0002771 266.4658  93.6184 14.98335036 25270

JSON: /api/v1/satellites/67206 · /tle

For live sub-satellite position, see the globe view (requires WebGL).

§ Visibility from observer

Set your observer location to see the next 7 days of passes ≥ 10°. The values pass through the URL so the page stays shareable.

No JS? Fill the form by hand. The geolocation button needs JavaScript.